Weather History for Alliance, NE

Change the Weather History Date:

Saturday, July 13, 2013

  Actual Average Record
Temperature  
Mean Temperature 78 °F 72 °F  
Max Temperature 92 °F 89 °F 103 °F (1995)
Min Temperature 63 °F 56 °F 38 °F (2008)
Degree Days  
Heating Degree Days 0 0  
Month to date heating degree days 0 5  
Since 1 June heating degree days 62 98  
Since 1 July heating degree days 0 5  
Cooling Degree Days 13 7  
Month to date cooling degree days 121 85  
Year to date cooling degree days 267 183  
Since 1 June cooling degree days 245 173  
Growing Degree Days 28 (Base 50)    
Moisture  
Dew Point 63 °F    
Average Humidity 68    
Maximum Humidity 100    
Minimum Humidity 36    
Precipitation  
Precipitation T in 0.08 in 1.50 in (1997)
Month to date precipitation T 0.98  
Year to date precipitation 6.72 9.37  
Sea Level Pressure  
Sea Level Pressure 29.88 in    
Wind  
Wind Speed 7 mph (SSE)    
Max Wind Speed 14 mph    
Max Gust Speed 21 mph    
Visibility 10 miles    
Events      
T = Trace of Precipitation, MM = Missing Value Source: NWS Daily Summary

Daily Weather History Graph

Daily Weather History Graph

Search for Another Location

Airport:

Trip Planner

Search our weather history database for the weather conditions in past years. The results will help you decide how hot, cold, wet, or windy it might be!

Date:

Astronomy

Jul. 13, 2013 Rise Set
Actual Time 5:27 AM MDT 8:26 PM MDT
Civil Twilight 4:53 AM MDT 8:59 PM MDT
Nautical Twilight 4:11 AM MDT 9:42 PM MDT
Astronomical Twilight 3:21 AM MDT 10:31 PM MDT
Moon 10:52 AM MDT (7/13) 11:01 PM MDT (7/13)
Length of Visible Light 16h 05m
Length of Day
14h 58m
Waxing Crescent, 26% of the Moon is Illuminated
Jul 13
Waxing Crescent
Jul 15
First Quarter
Jul 22
Full
Jul 29
Last Quarter
Aug 6
New

Hourly Weather History & Observations

Time (MDT) Temp. Heat Index Dew Point Humidity Pressure Visibility Wind Dir Wind Speed Gust Speed Precip Events Conditions
12:53 AM 66.9 °F - 64.9 °F 93% 29.88 in 10.0 mi ESE 9.2 mph - 0.00 in   Scattered Clouds
1:53 AM 66.9 °F - 64.0 °F 90% 29.83 in 10.0 mi ENE 6.9 mph - 0.00 in   Clear
2:53 AM 66.0 °F - 64.0 °F 93% 29.83 in 10.0 mi SE 9.2 mph - N/A   Clear
3:53 AM 64.9 °F - 64.0 °F 97% 29.85 in 10.0 mi Calm Calm - N/A   Clear
4:53 AM 64.0 °F - 63.0 °F 96% 29.88 in 10.0 mi West 6.9 mph - N/A   Clear
5:53 AM 64.0 °F - 62.1 °F 93% 29.89 in 7.0 mi Calm Calm - N/A   Clear
6:53 AM 66.9 °F - 64.9 °F 93% 29.90 in 8.0 mi Calm Calm - N/A   Clear
7:53 AM 71.1 °F - 64.9 °F 81% 29.91 in 10.0 mi WSW 5.8 mph - N/A   Clear
8:53 AM 77.0 °F - 63.0 °F 62% 29.91 in 10.0 mi South 10.4 mph - N/A   Clear
9:53 AM 79.0 °F - 64.0 °F 60% 29.91 in 10.0 mi SSE 9.2 mph - N/A   Clear
10:53 AM 82.0 °F 83.8 °F 64.9 °F 56% 29.91 in 10.0 mi SSE 10.4 mph - N/A   Clear
11:53 AM 82.0 °F 83.8 °F 64.9 °F 56% 29.91 in 10.0 mi SE 10.4 mph - N/A   Clear
12:53 PM 84.0 °F 85.4 °F 64.0 °F 51% 29.90 in 10.0 mi Calm Calm - N/A   Clear
1:53 PM 88.0 °F 88.7 °F 63.0 °F 43% 29.88 in 10.0 mi SSE 6.9 mph - N/A   Clear
2:53 PM 90.0 °F 90.0 °F 61.0 °F 38% 29.86 in 10.0 mi ESE 8.1 mph - N/A   Clear
3:53 PM 91.0 °F 90.9 °F 61.0 °F 36% 29.86 in 10.0 mi East 9.2 mph - N/A   Clear
4:53 PM 90.0 °F 90.3 °F 62.1 °F 39% 29.85 in 10.0 mi SE 10.4 mph 20.7 mph N/A   Clear
5:53 PM 86.0 °F 86.3 °F 62.1 °F 44% 29.86 in 10.0 mi SE 8.1 mph - N/A   Clear
6:53 PM 84.9 °F 85.4 °F 62.1 °F 46% 29.87 in 10.0 mi SE 8.1 mph - N/A   Clear
7:53 PM 82.0 °F 83.4 °F 64.0 °F 54% 29.87 in 10.0 mi SE 5.8 mph - N/A   Clear
8:53 PM 78.1 °F - 66.0 °F 66% 29.87 in 10.0 mi ESE 3.5 mph - N/A   Clear
9:53 PM 75.9 °F - 66.9 °F 74% 29.90 in 10.0 mi Calm Calm - N/A   Clear
10:53 PM 75.9 °F - 59.0 °F 56% 29.91 in 10.0 mi West 8.1 mph - N/A   Clear
11:53 PM 73.9 °F - 60.1 °F 62% 29.91 in 10.0 mi West 12.7 mph - N/A   Clear